Time,TemperatureF,DewpointF,PressureIn,WindDirection,WindDirectionDegrees,WindSpeedMPH,WindSpeedGustMPH,Humidity,HourlyPrecipIn,Conditions,Clouds,dailyrainin,SoftwareType,DateUTC
2013-03-30 00:01:00,30.0,24.6,30.25,WSW,242,4.0,4.0,80,0.00,,,0.00,meteohub,2013-03-30 05:01:00,
2013-03-30 00:07:00,30.4,25.0,30.25,WSW,242,4.0,4.0,80,0.00,,,0.00,meteohub,2013-03-30 05:07:00,
2013-03-30 00:12:00,30.9,24.8,30.25,WSW,242,4.0,5.0,78,0.00,,,0.00,meteohub,2013-03-30 05:12:00,
2013-03-30 00:17:00,30.4,24.6,30.25,WSW,242,5.0,6.0,79,0.00,,,0.00,meteohub,2013-03-30 05:17:00,
2013-03-30 00:22:00,30.4,24.6,30.25,WSW,242,4.0,6.0,79,0.00,,,0.00,meteohub,2013-03-30 05:22:00,
2013-03-30 00:27:00,30.7,25.0,30.25,WSW,242,3.0,6.0,79,0.00,,,0.00,meteohub,2013-03-30 05:27:00,
2013-03-30 00:32:00,31.1,25.0,30.25,WSW,242,3.0,6.0,78,0.00,,,0.00,meteohub,2013-03-30 05:32:00,
2013-03-30 00:37:00,31.5,25.2,30.25,WSW,242,4.0,5.0,77,0.00,,,0.00,meteohub,2013-03-30 05:37:00,
2013-03-30 00:42:00,31.8,25.2,30.25,WSW,238,5.0,6.0,76,0.00,,,0.00,meteohub,2013-03-30 05:42:00,
2013-03-30 00:47:00,32.2,25.2,30.25,WSW,238,5.0,6.0,75,0.00,,,0.00,meteohub,2013-03-30 05:47:00,
2013-03-30 00:52:00,32.2,25.2,30.25,SW,230,6.0,6.0,75,0.00,,,0.00,meteohub,2013-03-30 05:52:00,
2013-03-30 00:58:00,32.5,25.2,30.25,SW,221,6.0,7.0,74,0.00,,,0.00,meteohub,2013-03-30 05:58:00,
2013-03-30 01:03:00,32.5,25.2,30.25,SW,221,7.0,8.0,74,0.00,,,0.00,meteohub,2013-03-30 06:03:00,
2013-03-30 01:08:00,32.5,25.2,30.25,SW,220,5.0,8.0,74,0.00,,,0.00,meteohub,2013-03-30 06:08:00,
2013-03-30 01:13:00,32.9,25.5,30.25,SW,219,7.0,8.0,74,0.00,,,0.00,meteohub,2013-03-30 06:13:00,
2013-03-30 01:18:00,33.1,25.7,30.25,SW,218,6.0,8.0,74,0.00,,,0.00,meteohub,2013-03-30 06:18:00,
2013-03-30 01:24:00,32.9,25.5,30.25,SW,215,6.0,9.0,74,0.00,,,0.00,meteohub,2013-03-30 06:24:00,
2013-03-30 01:29:00,33.3,25.5,30.25,SSW,194,7.0,9.0,73,0.00,,,0.00,meteohub,2013-03-30 06:29:00,
2013-03-30 01:34:00,33.6,25.2,30.25,South,190,9.0,9.0,71,0.00,,,0.00,meteohub,2013-03-30 06:34:00,
2013-03-30 01:39:00,33.4,25.3,30.25,South,189,7.0,11.0,72,0.00,,,0.00,meteohub,2013-03-30 06:39:00,
2013-03-30 01:44:00,33.3,25.2,30.24,South,189,6.0,11.0,72,0.00,,,0.00,meteohub,2013-03-30 06:44:00,
2013-03-30 01:49:00,33.3,25.5,30.24,South,189,8.0,11.0,73,0.00,,,0.00,meteohub,2013-03-30 06:49:00,
2013-03-30 01:54:00,33.3,25.5,30.24,South,190,8.0,11.0,73,0.00,,,0.00,meteohub,2013-03-30 06:54:00,
2013-03-30 02:00:00,32.9,25.2,30.24,South,190,8.0,11.0,73,0.00,,,0.00,meteohub,2013-03-30 07:00:00,
2013-03-30 02:05:00,32.7,25.3,30.24,SSW,192,8.0,11.0,74,0.00,,,0.00,meteohub,2013-03-30 07:05:00,
2013-03-30 02:10:00,32.5,25.2,30.24,South,189,6.0,11.0,74,0.00,,,0.00,meteohub,2013-03-30 07:10:00,
2013-03-30 02:15:00,32.5,25.2,30.24,South,189,8.0,11.0,74,0.00,,,0.00,meteohub,2013-03-30 07:15:00,
2013-03-30 02:20:00,32.4,25.3,30.24,South,188,11.0,11.0,75,0.00,,,0.00,meteohub,2013-03-30 07:20:00,
2013-03-30 02:25:00,32.4,25.3,30.23,South,188,10.0,11.0,75,0.00,,,0.00,meteohub,2013-03-30 07:25:00,
2013-03-30 02:30:00,32.2,25.5,30.23,South,186,6.0,13.0,76,0.00,,,0.00,meteohub,2013-03-30 07:30:00,
2013-03-30 02:35:00,31.8,25.2,30.23,South,185,7.0,11.0,76,0.00,,,0.00,meteohub,2013-03-30 07:35:00,
2013-03-30 02:40:00,32.0,25.3,30.23,South,185,6.0,11.0,76,0.00,,,0.00,meteohub,2013-03-30 07:40:00,
2013-03-30 02:45:00,32.2,25.5,30.22,South,185,3.0,10.0,76,0.00,,,0.00,meteohub,2013-03-30 07:45:00,
2013-03-30 02:51:00,32.4,25.7,30.22,South,185,6.0,9.0,76,0.00,,,0.00,meteohub,2013-03-30 07:51:00,
2013-03-30 02:56:00,32.4,25.3,30.22,South,185,4.0,8.0,75,0.00,,,0.00,meteohub,2013-03-30 07:56:00,
2013-03-30 03:01:00,32.4,25.0,30.22,South,185,6.0,8.0,74,0.00,,,0.00,meteohub,2013-03-30 08:01:00,
2013-03-30 03:06:00,32.5,25.2,30.22,South,185,6.0,9.0,74,0.00,,,0.00,meteohub,2013-03-30 08:06:00,
2013-03-30 03:11:00,32.5,25.2,30.22,South,185,6.0,9.0,74,0.00,,,0.00,meteohub,2013-03-30 08:11:00,
2013-03-30 03:17:00,32.5,25.2,30.21,South,185,5.0,9.0,74,0.00,,,0.00,meteohub,2013-03-30 08:17:00,
2013-03-30 03:22:00,32.5,24.8,30.21,South,185,5.0,9.0,73,0.00,,,0.00,meteohub,2013-03-30 08:22:00,
2013-03-30 03:27:00,32.5,25.2,30.20,South,185,5.0,8.0,74,0.00,,,0.00,meteohub,2013-03-30 08:27:00,
2013-03-30 03:32:00,32.4,25.0,30.21,South,185,4.0,8.0,74,0.00,,,0.00,meteohub,2013-03-30 08:32:00,
2013-03-30 03:37:00,32.5,25.2,30.20,South,185,4.0,8.0,74,0.00,,,0.00,meteohub,2013-03-30 08:37:00,
2013-03-30 03:42:00,32.7,25.0,30.20,South,185,5.0,6.0,73,0.00,,,0.00,meteohub,2013-03-30 08:42:00,
2013-03-30 03:47:00,32.9,25.2,30.20,South,185,3.0,6.0,73,0.00,,,0.00,meteohub,2013-03-30 08:47:00,
2013-03-30 03:52:00,32.9,25.5,30.20,South,185,3.0,7.0,74,0.00,,,0.00,meteohub,2013-03-30 08:52:00,
2013-03-30 03:58:00,32.7,25.3,30.20,South,185,4.0,7.0,74,0.00,,,0.00,meteohub,2013-03-30 08:58:00,
2013-03-30 04:03:00,32.7,25.3,30.20,South,185,5.0,7.0,74,0.00,,,0.00,meteohub,2013-03-30 09:03:00,
2013-03-30 04:08:00,33.1,25.3,30.20,South,185,7.0,7.0,73,0.00,,,0.00,meteohub,2013-03-30 09:08:00,
2013-03-30 04:13:00,33.1,25.3,30.19,South,185,7.0,9.0,73,0.00,,,0.00,meteohub,2013-03-30 09:13:00,
2013-03-30 04:18:00,32.5,25.5,30.19,South,185,8.0,9.0,75,0.00,,,0.00,meteohub,2013-03-30 09:18:00,
2013-03-30 04:24:00,32.2,25.5,30.19,South,185,6.0,9.0,76,0.00,,,0.00,meteohub,2013-03-30 09:24:00,
2013-03-30 04:29:00,32.2,25.2,30.19,South,185,7.0,10.0,75,0.00,,,0.00,meteohub,2013-03-30 09:29:00,
2013-03-30 04:34:00,32.2,24.8,30.19,South,185,7.0,10.0,74,0.00,,,0.00,meteohub,2013-03-30 09:34:00,
2013-03-30 04:39:00,32.0,25.0,30.19,South,186,9.0,10.0,75,0.00,,,0.00,meteohub,2013-03-30 09:39:00,
2013-03-30 04:44:00,31.8,24.8,30.19,South,187,9.0,10.0,75,0.00,,,0.00,meteohub,2013-03-30 09:44:00,
2013-03-30 04:49:00,31.8,25.2,30.20,South,188,9.0,11.0,76,0.00,,,0.00,meteohub,2013-03-30 09:49:00,
2013-03-30 04:55:00,32.2,24.8,30.19,South,188,9.0,12.0,74,0.00,,,0.00,meteohub,2013-03-30 09:55:00,
2013-03-30 05:00:00,32.2,24.8,30.19,South,177,8.0,13.0,74,0.00,,,0.00,meteohub,2013-03-30 10:00:00,
2013-03-30 05:05:00,32.0,25.0,30.19,South,179,6.0,13.0,75,0.00,,,0.00,meteohub,2013-03-30 10:05:00,
2013-03-30 05:10:00,31.6,25.0,30.19,South,179,6.0,13.0,76,0.00,,,0.00,meteohub,2013-03-30 10:10:00,
2013-03-30 05:15:00,31.6,25.0,30.18,South,180,6.0,12.0,76,0.00,,,0.00,meteohub,2013-03-30 10:15:00,
2013-03-30 05:20:00,31.6,25.0,30.18,South,180,8.0,10.0,76,0.00,,,0.00,meteohub,2013-03-30 10:20:00,
2013-03-30 05:26:00,32.0,25.3,30.18,South,181,7.0,13.0,76,0.00,,,0.00,meteohub,2013-03-30 10:26:00,
2013-03-30 05:31:00,32.2,25.2,30.18,South,181,5.0,13.0,75,0.00,,,0.00,meteohub,2013-03-30 10:31:00,
2013-03-30 05:37:00,32.4,25.3,30.18,South,179,9.0,13.0,75,0.00,,,0.00,meteohub,2013-03-30 10:37:00,
2013-03-30 05:42:00,32.4,25.0,30.18,South,177,7.0,12.0,74,0.00,,,0.00,meteohub,2013-03-30 10:42:00,
2013-03-30 05:47:00,32.2,25.2,30.18,South,180,7.0,12.0,75,0.00,,,0.00,meteohub,2013-03-30 10:47:00,
2013-03-30 05:52:00,32.2,25.2,30.17,South,177,6.0,12.0,75,0.00,,,0.00,meteohub,2013-03-30 10:52:00,
2013-03-30 05:57:00,32.5,25.5,30.17,South,175,5.0,12.0,75,0.00,,,0.00,meteohub,2013-03-30 10:57:00,
2013-03-30 06:02:00,32.7,25.3,30.17,South,171,8.0,12.0,74,0.00,,,0.00,meteohub,2013-03-30 11:02:00,
2013-03-30 06:07:00,33.3,25.9,30.17,South,171,10.0,10.0,74,0.00,,,0.00,meteohub,2013-03-30 11:07:00,
2013-03-30 06:12:00,33.6,25.9,30.17,South,175,5.0,10.0,73,0.00,,,0.00,meteohub,2013-03-30 11:12:00,
2013-03-30 06:17:00,34.2,26.4,30.16,South,178,7.0,11.0,73,0.00,,,0.00,meteohub,2013-03-30 11:17:00,
2013-03-30 06:23:00,34.3,26.6,30.16,South,186,9.0,11.0,73,0.00,,,0.00,meteohub,2013-03-30 11:23:00,
2013-03-30 06:28:00,34.5,26.1,30.16,South,188,10.0,12.0,71,0.00,,,0.00,meteohub,2013-03-30 11:28:00,
2013-03-30 06:33:00,34.5,26.1,30.16,SSW,196,7.0,13.0,71,0.00,,,0.00,meteohub,2013-03-30 11:33:00,
2013-03-30 06:39:00,34.5,26.1,30.16,South,190,10.0,13.0,71,0.00,,,0.00,meteohub,2013-03-30 11:39:00,
2013-03-30 06:44:00,34.3,25.9,30.15,South,184,13.0,13.0,71,0.00,,,0.00,meteohub,2013-03-30 11:44:00,
2013-03-30 06:49:00,34.0,25.9,30.16,SSW,192,11.0,14.0,72,0.00,,,0.00,meteohub,2013-03-30 11:49:00,
2013-03-30 06:54:00,33.6,25.5,30.15,South,180,9.0,17.0,72,0.00,,,0.00,meteohub,2013-03-30 11:54:00,
2013-03-30 07:00:00,33.3,25.9,30.15,SSE,153,9.0,17.0,74,0.00,,,0.00,meteohub,2013-03-30 12:00:00,
2013-03-30 07:05:00,33.1,25.7,30.14,SSE,160,8.0,17.0,74,0.00,,,0.00,meteohub,2013-03-30 12:05:00,
2013-03-30 07:10:00,33.3,25.9,30.14,SSE,163,9.0,13.0,74,0.00,,,0.00,meteohub,2013-03-30 12:10:00,
2013-03-30 07:15:00,33.1,26.1,30.14,South,173,6.0,13.0,75,0.00,,,0.00,meteohub,2013-03-30 12:15:00,
2013-03-30 07:20:00,33.3,26.2,30.13,SSE,167,7.0,11.0,75,0.00,,,0.00,meteohub,2013-03-30 12:20:00,
2013-03-30 07:26:00,33.4,26.4,30.14,South,190,12.0,12.0,75,0.00,,,0.00,meteohub,2013-03-30 12:26:00,
2013-03-30 07:31:00,33.6,26.6,30.14,South,186,11.0,13.0,75,0.00,,,0.00,meteohub,2013-03-30 12:31:00,
2013-03-30 07:37:00,34.0,26.6,30.14,South,175,9.0,13.0,74,0.00,,,0.00,meteohub,2013-03-30 12:37:00,
2013-03-30 07:42:00,34.0,27.0,30.14,South,174,8.0,13.0,75,0.00,,,0.00,meteohub,2013-03-30 12:42:00,
2013-03-30 07:47:00,34.3,27.0,30.14,South,180,6.0,13.0,74,0.00,,,0.00,meteohub,2013-03-30 12:47:00,
2013-03-30 07:52:00,34.7,27.3,30.14,South,184,12.0,13.0,74,0.00,,,0.00,meteohub,2013-03-30 12:52:00,
2013-03-30 07:57:00,35.1,27.3,30.14,South,174,12.0,14.0,73,0.00,,,0.00,meteohub,2013-03-30 12:57:00,
2013-03-30 08:02:00,35.2,27.5,30.13,South,176,7.0,14.0,73,0.00,,,0.00,meteohub,2013-03-30 13:02:00,
2013-03-30 08:08:00,35.4,27.3,30.13,South,188,11.0,15.0,72,0.00,,,0.00,meteohub,2013-03-30 13:08:00,
2013-03-30 08:13:00,35.8,27.7,30.13,SSE,165,8.0,15.0,72,0.00,,,0.00,meteohub,2013-03-30 13:13:00,
2013-03-30 08:18:00,36.1,28.0,30.13,South,176,12.0,15.0,72,0.00,,,0.00,meteohub,2013-03-30 13:18:00,
2013-03-30 08:23:00,36.1,27.7,30.12,South,182,7.0,15.0,71,0.00,,,0.00,meteohub,2013-03-30 13:23:00,
2013-03-30 08:28:00,36.5,27.7,30.12,South,175,10.0,17.0,70,0.00,,,0.00,meteohub,2013-03-30 13:28:00,
2013-03-30 08:34:00,36.9,27.7,30.12,South,178,12.0,17.0,69,0.00,,,0.00,meteohub,2013-03-30 13:34:00,
2013-03-30 08:39:00,36.9,28.0,30.12,South,190,11.0,17.0,70,0.00,,,0.00,meteohub,2013-03-30 13:39:00,
2013-03-30 08:44:00,37.0,27.9,30.12,South,179,8.0,17.0,69,0.00,,,0.00,meteohub,2013-03-30 13:44:00,
2013-03-30 08:49:00,37.0,27.9,30.11,South,180,10.0,15.0,69,0.00,,,0.00,meteohub,2013-03-30 13:49:00,
2013-03-30 08:55:00,37.2,28.4,30.11,South,189,9.0,15.0,70,0.00,,,0.00,meteohub,2013-03-30 13:55:00,
2013-03-30 09:00:00,37.2,28.8,30.10,South,177,8.0,14.0,71,0.00,,,0.00,meteohub,2013-03-30 14:00:00,
2013-03-30 09:05:00,37.2,28.8,30.10,South,179,6.0,13.0,71,0.00,,,0.00,meteohub,2013-03-30 14:05:00,
2013-03-30 09:11:00,37.6,28.8,30.10,South,184,7.0,13.0,70,0.00,,,0.00,meteohub,2013-03-30 14:11:00,
2013-03-30 09:16:00,37.6,29.1,30.10,South,175,7.0,13.0,71,0.00,,,0.00,meteohub,2013-03-30 14:16:00,
2013-03-30 09:21:00,37.8,29.1,30.09,South,169,5.0,13.0,71,0.00,,,0.00,meteohub,2013-03-30 14:21:00,
2013-03-30 09:26:00,38.1,29.1,30.09,South,171,5.0,12.0,70,0.00,,,0.00,meteohub,2013-03-30 14:26:00,
2013-03-30 09:32:00,38.8,29.1,30.09,South,182,10.0,12.0,68,0.00,,,0.00,meteohub,2013-03-30 14:32:00,
2013-03-30 09:37:00,39.4,29.3,30.09,South,188,8.0,14.0,67,0.00,,,0.00,meteohub,2013-03-30 14:37:00,
2013-03-30 09:42:00,39.4,28.9,30.09,SSE,156,10.0,15.0,66,0.00,,,0.00,meteohub,2013-03-30 14:42:00,
2013-03-30 09:47:00,39.2,29.1,30.08,South,182,8.0,15.0,67,0.00,,,0.00,meteohub,2013-03-30 14:47:00,
2013-03-30 09:52:00,39.4,29.3,30.08,SSE,165,6.0,14.0,67,0.00,,,0.00,meteohub,2013-03-30 14:52:00,
2013-03-30 09:58:00,39.6,29.5,30.07,South,174,7.0,13.0,67,0.00,,,0.00,meteohub,2013-03-30 14:58:00,
2013-03-30 10:03:00,39.7,29.3,30.08,South,187,8.0,14.0,66,0.00,,,0.00,meteohub,2013-03-30 15:03:00,
2013-03-30 10:08:00,39.9,29.5,30.08,South,190,9.0,15.0,66,0.00,,,0.00,meteohub,2013-03-30 15:08:00,
2013-03-30 10:13:00,39.9,29.5,30.08,SSE,168,8.0,15.0,66,0.00,,,0.00,meteohub,2013-03-30 15:13:00,
2013-03-30 10:18:00,40.5,30.0,30.07,South,179,7.0,14.0,66,0.00,,,0.00,meteohub,2013-03-30 15:18:00,
2013-03-30 10:24:00,40.8,30.0,30.07,South,173,7.0,13.0,65,0.00,,,0.00,meteohub,2013-03-30 15:24:00,
2013-03-30 10:29:00,40.8,30.0,30.07,SSW,192,11.0,13.0,65,0.00,,,0.00,meteohub,2013-03-30 15:29:00,
2013-03-30 10:34:00,41.0,31.3,30.07,South,178,13.0,15.0,68,0.00,,,0.00,meteohub,2013-03-30 15:34:00,
2013-03-30 10:39:00,41.0,29.8,30.06,SSE,162,12.0,18.0,64,0.00,,,0.00,meteohub,2013-03-30 15:39:00,
2013-03-30 10:45:00,41.2,30.4,30.06,South,176,15.0,21.0,65,0.00,,,0.00,meteohub,2013-03-30 15:45:00,
2013-03-30 10:50:00,41.2,30.4,30.06,South,190,7.0,21.0,65,0.00,,,0.00,meteohub,2013-03-30 15:50:00,
2013-03-30 10:55:00,41.2,30.7,30.06,South,178,11.0,21.0,66,0.00,,,0.00,meteohub,2013-03-30 15:55:00,
2013-03-30 11:01:00,41.5,31.1,30.05,SSW,198,10.0,16.0,66,0.00,,,0.00,meteohub,2013-03-30 16:01:00,
2013-03-30 11:06:00,41.7,31.3,30.05,SSW,192,11.0,19.0,66,0.00,,,0.00,meteohub,2013-03-30 16:06:00,
2013-03-30 11:11:00,42.3,31.3,30.05,SSE,156,10.0,19.0,65,0.00,,,0.00,meteohub,2013-03-30 16:11:00,
2013-03-30 11:17:00,42.3,31.3,30.04,SSW,192,10.0,19.0,65,0.00,,,0.00,meteohub,2013-03-30 16:17:00,
2013-03-30 11:22:00,42.4,31.5,30.04,South,170,11.0,18.0,65,0.00,,,0.00,meteohub,2013-03-30 16:22:00,
2013-03-30 11:27:00,42.4,31.1,30.04,South,182,16.0,21.0,64,0.00,,,0.00,meteohub,2013-03-30 16:27:00,
2013-03-30 11:32:00,42.4,31.5,30.04,South,183,17.0,21.0,65,0.00,,,0.00,meteohub,2013-03-30 16:32:00,
2013-03-30 11:37:00,42.4,31.1,30.04,South,178,14.0,21.0,64,0.00,,,0.00,meteohub,2013-03-30 16:37:00,
2013-03-30 11:42:00,42.4,31.5,30.04,South,188,16.0,19.0,65,0.00,,,0.00,meteohub,2013-03-30 16:42:00,
2013-03-30 11:47:00,42.6,31.6,30.04,South,186,12.0,19.0,65,0.00,,,0.00,meteohub,2013-03-30 16:47:00,
2013-03-30 11:53:00,42.6,31.6,30.03,South,171,12.0,18.0,65,0.00,,,0.00,meteohub,2013-03-30 16:53:00,
2013-03-30 11:58:00,42.6,31.6,30.03,South,190,15.0,18.0,65,0.00,,,0.00,meteohub,2013-03-30 16:58:00,
2013-03-30 12:03:00,42.6,31.6,30.03,SSW,194,13.0,18.0,65,0.00,,,0.00,meteohub,2013-03-30 17:03:00,
2013-03-30 12:08:00,42.6,32.0,30.03,South,188,17.0,21.0,66,0.00,,,0.00,meteohub,2013-03-30 17:08:00,
2013-03-30 12:14:00,42.8,32.5,30.02,South,184,7.0,21.0,67,0.00,,,0.00,meteohub,2013-03-30 17:14:00,
2013-03-30 12:19:00,43.0,32.4,30.02,South,175,9.0,21.0,66,0.00,,,0.00,meteohub,2013-03-30 17:19:00,
2013-03-30 12:25:00,43.0,33.1,30.02,South,176,11.0,18.0,68,0.00,,,0.00,meteohub,2013-03-30 17:25:00,
2013-03-30 12:30:00,43.2,33.3,30.01,South,184,9.0,18.0,68,0.00,,,0.00,meteohub,2013-03-30 17:30:00,
2013-03-30 12:35:00,43.2,33.3,30.01,SSE,166,10.0,16.0,68,0.00,,,0.00,meteohub,2013-03-30 17:35:00,
2013-03-30 12:40:00,43.3,33.4,30.01,South,178,9.0,17.0,68,0.00,,,0.00,meteohub,2013-03-30 17:40:00,
2013-03-30 12:45:00,43.3,33.4,30.01,South,183,10.0,17.0,68,0.00,,,0.00,meteohub,2013-03-30 17:45:00,
2013-03-30 12:51:00,43.3,33.4,30.01,South,190,10.0,17.0,68,0.00,,,0.00,meteohub,2013-03-30 17:51:00,
2013-03-30 12:56:00,43.5,34.0,30.00,South,178,11.0,15.0,69,0.00,,,0.00,meteohub,2013-03-30 17:56:00,
2013-03-30 13:01:00,43.7,34.2,30.00,South,184,12.0,18.0,69,0.00,,,0.00,meteohub,2013-03-30 18:01:00,
2013-03-30 13:07:00,43.7,34.2,30.00,South,190,10.0,19.0,69,0.00,,,0.00,meteohub,2013-03-30 18:07:00,
2013-03-30 13:12:00,43.5,34.3,30.00,South,187,13.0,19.0,70,0.00,,,0.00,meteohub,2013-03-30 18:12:00,
2013-03-30 13:17:00,43.2,34.0,30.00,SSW,204,9.0,19.0,70,0.00,,,0.00,meteohub,2013-03-30 18:17:00,
2013-03-30 13:22:00,42.6,34.2,30.00,SSW,194,10.0,16.0,72,0.00,,,0.00,meteohub,2013-03-30 18:22:00,
2013-03-30 13:27:00,42.8,34.7,30.00,SSW,198,11.0,16.0,73,0.00,,,0.00,meteohub,2013-03-30 18:27:00,
2013-03-30 13:32:00,43.0,34.9,29.99,SSW,192,7.0,14.0,73,0.00,,,0.00,meteohub,2013-03-30 18:32:00,
2013-03-30 13:38:00,43.2,35.4,29.99,South,187,9.0,14.0,74,0.00,,,0.00,meteohub,2013-03-30 18:38:00,
2013-03-30 13:43:00,43.5,35.8,29.99,South,181,13.0,14.0,74,0.00,,,0.00,meteohub,2013-03-30 18:43:00,
2013-03-30 13:48:00,44.2,36.1,29.98,South,184,13.0,14.0,73,0.00,,,0.00,meteohub,2013-03-30 18:48:00,
2013-03-30 13:53:00,45.3,37.2,29.98,SSW,193,11.0,17.0,73,0.00,,,0.00,meteohub,2013-03-30 18:53:00,
2013-03-30 13:59:00,46.2,37.4,29.97,South,169,18.0,18.0,71,0.00,,,0.00,meteohub,2013-03-30 18:59:00,
2013-03-30 14:04:00,46.6,37.4,29.97,South,182,14.0,21.0,70,0.00,,,0.00,meteohub,2013-03-30 19:04:00,
2013-03-30 14:09:00,46.8,37.9,29.96,South,187,19.0,21.0,71,0.00,,,0.00,meteohub,2013-03-30 19:09:00,
2013-03-30 14:14:00,47.1,38.1,29.96,SSW,192,11.0,22.0,71,0.00,,,0.00,meteohub,2013-03-30 19:14:00,
2013-03-30 14:20:00,47.5,38.1,29.96,South,182,12.0,22.0,70,0.00,,,0.00,meteohub,2013-03-30 19:20:00,
2013-03-30 14:25:00,47.7,38.3,29.95,South,187,12.0,22.0,70,0.00,,,0.00,meteohub,2013-03-30 19:25:00,
2013-03-30 14:30:00,47.8,38.5,29.95,SSW,197,14.0,22.0,70,0.00,,,0.00,meteohub,2013-03-30 19:30:00,
2013-03-30 14:35:00,47.8,38.5,29.94,South,184,14.0,22.0,70,0.00,,,0.00,meteohub,2013-03-30 19:35:00,
2013-03-30 14:40:00,48.4,39.4,29.95,SSW,192,7.0,21.0,71,0.00,,,0.00,meteohub,2013-03-30 19:40:00,
2013-03-30 14:45:00,47.8,38.8,29.95,South,190,11.0,19.0,71,0.00,,,0.00,meteohub,2013-03-30 19:45:00,
2013-03-30 14:51:00,47.1,38.1,29.94,SSW,211,11.0,19.0,71,0.00,,,0.00,meteohub,2013-03-30 19:51:00,
2013-03-30 14:56:00,47.1,38.1,29.94,SSW,192,11.0,17.0,71,0.00,,,0.00,meteohub,2013-03-30 19:56:00,
2013-03-30 15:02:00,46.9,38.3,29.94,SSW,202,10.0,17.0,72,0.00,,,0.00,meteohub,2013-03-30 20:02:00,
2013-03-30 15:07:00,46.8,38.5,29.94,SSW,198,10.0,17.0,73,0.00,,,0.00,meteohub,2013-03-30 20:07:00,
2013-03-30 15:12:00,46.9,39.0,29.94,SSW,197,10.0,17.0,74,0.00,,,0.00,meteohub,2013-03-30 20:12:00,
2013-03-30 15:17:00,47.5,39.6,29.93,SSW,207,7.0,16.0,74,0.00,,,0.00,meteohub,2013-03-30 20:17:00,
2013-03-30 15:22:00,48.0,40.1,29.93,South,186,11.0,15.0,74,0.00,,,0.00,meteohub,2013-03-30 20:22:00,
2013-03-30 15:27:00,48.2,39.9,29.93,SSW,202,10.0,16.0,73,0.00,,,0.00,meteohub,2013-03-30 20:27:00,
2013-03-30 15:33:00,48.0,39.4,29.92,South,187,10.0,16.0,72,0.00,,,0.00,meteohub,2013-03-30 20:33:00,
2013-03-30 15:38:00,48.4,39.4,29.93,South,189,14.0,16.0,71,0.00,,,0.00,meteohub,2013-03-30 20:38:00,
2013-03-30 15:43:00,48.6,39.2,29.93,SSW,198,12.0,16.0,70,0.00,,,0.00,meteohub,2013-03-30 20:43:00,
2013-03-30 15:48:00,48.4,38.7,29.93,SSW,209,10.0,20.0,69,0.00,,,0.00,meteohub,2013-03-30 20:48:00,
2013-03-30 15:53:00,47.8,38.5,29.92,SSW,205,11.0,20.0,70,0.00,,,0.00,meteohub,2013-03-30 20:53:00,
2013-03-30 15:59:00,47.5,38.5,29.92,South,189,11.0,19.0,71,0.00,,,0.00,meteohub,2013-03-30 20:59:00,
2013-03-30 16:04:00,47.1,38.5,29.92,South,190,9.0,19.0,72,0.00,,,0.00,meteohub,2013-03-30 21:04:00,
2013-03-30 16:09:00,46.9,38.3,29.92,SSW,200,9.0,15.0,72,0.00,,,0.00,meteohub,2013-03-30 21:09:00,
2013-03-30 16:14:00,46.8,38.5,29.91,SSW,199,9.0,15.0,73,0.00,,,0.00,meteohub,2013-03-30 21:14:00,
2013-03-30 16:20:00,46.6,38.5,29.91,South,182,8.0,14.0,73,0.00,,,0.00,meteohub,2013-03-30 21:20:00,
2013-03-30 16:25:00,46.6,38.5,29.91,South,185,7.0,12.0,73,0.00,,,0.00,meteohub,2013-03-30 21:25:00,
2013-03-30 16:30:00,46.2,38.5,29.91,South,184,6.0,12.0,74,0.00,,,0.00,meteohub,2013-03-30 21:30:00,
2013-03-30 16:35:00,46.2,38.5,29.90,South,175,8.0,12.0,74,0.00,,,0.00,meteohub,2013-03-30 21:35:00,
2013-03-30 16:40:00,46.2,38.5,29.90,South,187,6.0,12.0,74,0.00,,,0.00,meteohub,2013-03-30 21:40:00,
2013-03-30 16:46:00,46.0,38.3,29.90,SSW,192,7.0,14.0,74,0.00,,,0.00,meteohub,2013-03-30 21:46:00,
2013-03-30 16:51:00,45.9,38.3,29.90,SSW,202,7.0,14.0,75,0.00,,,0.00,meteohub,2013-03-30 21:51:00,
2013-03-30 16:57:00,45.1,37.9,29.90,SSW,192,7.0,14.0,76,0.00,,,0.00,meteohub,2013-03-30 21:57:00,
2013-03-30 17:02:00,45.0,38.1,29.90,SSW,202,7.0,12.0,77,0.00,,,0.00,meteohub,2013-03-30 22:02:00,
2013-03-30 17:07:00,44.4,37.6,29.90,SSW,197,7.0,11.0,77,0.00,,,0.00,meteohub,2013-03-30 22:07:00,
2013-03-30 17:12:00,44.2,37.8,29.89,SSW,204,6.0,11.0,78,0.00,,,0.00,meteohub,2013-03-30 22:12:00,
2013-03-30 17:17:00,44.1,37.6,29.89,SSW,198,7.0,9.0,78,0.00,,,0.00,meteohub,2013-03-30 22:17:00,
2013-03-30 17:22:00,44.2,37.8,29.89,South,188,7.0,9.0,78,0.00,,,0.00,meteohub,2013-03-30 22:22:00,
2013-03-30 17:27:00,44.6,38.1,29.89,South,188,7.0,9.0,78,0.00,,,0.00,meteohub,2013-03-30 22:27:00,
2013-03-30 17:32:00,45.0,38.5,29.89,South,187,7.0,11.0,78,0.00,,,0.00,meteohub,2013-03-30 22:32:00,
2013-03-30 17:37:00,45.0,38.1,29.88,South,186,7.0,13.0,77,0.00,,,0.00,meteohub,2013-03-30 22:37:00,
2013-03-30 17:42:00,45.0,38.5,29.88,South,188,10.0,13.0,78,0.00,,,0.00,meteohub,2013-03-30 22:42:00,
2013-03-30 17:47:00,45.1,38.7,29.88,South,189,10.0,13.0,78,0.00,,,0.00,meteohub,2013-03-30 22:47:00,
2013-03-30 17:53:00,45.1,38.7,29.88,South,188,10.0,13.0,78,0.00,,,0.00,meteohub,2013-03-30 22:53:00,
2013-03-30 17:58:00,45.3,38.8,29.88,South,180,12.0,14.0,78,0.00,,,0.00,meteohub,2013-03-30 22:58:00,
2013-03-30 18:03:00,45.1,38.7,29.88,South,181,10.0,14.0,78,0.00,,,0.00,meteohub,2013-03-30 23:03:00,
2013-03-30 18:09:00,44.8,38.7,29.89,SW,216,7.0,14.0,79,0.00,,,0.00,meteohub,2013-03-30 23:09:00,
2013-03-30 18:14:00,43.9,38.1,29.89,SW,225,8.0,14.0,80,0.00,,,0.00,meteohub,2013-03-30 23:14:00,
2013-03-30 18:19:00,42.6,37.6,29.89,SW,221,4.0,13.0,82,0.00,,,0.00,meteohub,2013-03-30 23:19:00,
2013-03-30 18:24:00,42.3,37.8,29.90,SW,221,6.0,10.0,84,0.00,,,0.00,meteohub,2013-03-30 23:24:00,
2013-03-30 18:30:00,42.6,38.1,29.90,SSW,213,5.0,10.0,84,0.00,,,0.00,meteohub,2013-03-30 23:30:00,
2013-03-30 18:35:00,42.6,38.1,29.88,SSW,213,2.0,8.0,84,0.00,,,0.00,meteohub,2013-03-30 23:35:00,
2013-03-30 18:40:00,42.4,38.3,29.89,SSW,213,4.0,6.0,85,0.00,,,0.00,meteohub,2013-03-30 23:40:00,
2013-03-30 18:45:00,42.3,38.1,29.89,SSW,213,3.0,5.0,85,0.00,,,0.00,meteohub,2013-03-30 23:45:00,
2013-03-30 18:50:00,42.6,38.7,29.88,SSW,201,5.0,7.0,86,0.00,,,0.00,meteohub,2013-03-30 23:50:00,
2013-03-30 18:56:00,42.8,38.7,29.88,SSW,201,4.0,7.0,85,0.00,,,0.00,meteohub,2013-03-30 23:56:00,
2013-03-30 19:01:00,42.8,38.7,29.88,SSW,201,3.0,7.0,85,0.00,,,0.00,meteohub,2013-03-31 00:01:00,
2013-03-30 19:06:00,42.6,38.5,29.88,SSW,201,3.0,6.0,85,0.00,,,0.00,meteohub,2013-03-31 00:06:00,
2013-03-30 19:12:00,42.4,38.5,29.88,SSW,201,3.0,6.0,86,0.00,,,0.00,meteohub,2013-03-31 00:12:00,
2013-03-30 19:17:00,41.9,37.8,29.88,SSW,201,3.0,6.0,85,0.00,,,0.00,meteohub,2013-03-31 00:17:00,
2013-03-30 19:22:00,41.7,37.8,29.87,SSW,201,3.0,5.0,86,0.00,,,0.00,meteohub,2013-03-31 00:22:00,
2013-03-30 19:27:00,41.4,37.6,29.87,SSW,200,2.0,5.0,86,0.00,,,0.00,meteohub,2013-03-31 00:27:00,
2013-03-30 19:32:00,40.8,37.2,29.87,SSW,201,2.0,5.0,87,0.01,,,0.01,meteohub,2013-03-31 00:32:00,
2013-03-30 19:37:00,41.0,37.8,29.87,SW,231,4.0,4.0,88,0.01,,,0.01,meteohub,2013-03-31 00:37:00,
2013-03-30 19:42:00,40.5,36.9,29.87,WSW,248,4.0,6.0,87,0.01,,,0.01,meteohub,2013-03-31 00:42:00,
2013-03-30 19:48:00,40.5,37.4,29.87,SSW,211,7.0,7.0,89,0.01,,,0.01,meteohub,2013-03-31 00:48:00,
2013-03-30 19:53:00,41.5,38.8,29.87,SSW,207,5.0,9.0,90,0.01,,,0.01,meteohub,2013-03-31 00:53:00,
2013-03-30 19:58:00,41.5,38.5,29.87,SSW,207,2.0,9.0,89,0.01,,,0.01,meteohub,2013-03-31 00:58:00,
2013-03-30 20:03:00,41.4,38.3,29.87,SSW,207,3.0,9.0,89,0.01,,,0.01,meteohub,2013-03-31 01:03:00,
2013-03-30 20:09:00,41.2,38.5,29.87,SSW,207,3.0,9.0,90,0.01,,,0.01,meteohub,2013-03-31 01:09:00,
2013-03-30 20:14:00,41.0,38.3,29.87,SSW,207,4.0,5.0,90,0.02,,,0.02,meteohub,2013-03-31 01:14:00,
2013-03-30 20:19:00,40.8,38.1,29.86,SSW,207,4.0,5.0,90,0.02,,,0.02,meteohub,2013-03-31 01:19:00,
2013-03-30 20:24:00,41.4,39.0,29.86,SSW,195,7.0,7.0,91,0.02,,,0.02,meteohub,2013-03-31 01:24:00,
2013-03-30 20:30:00,41.7,39.0,29.86,SSW,194,6.0,8.0,90,0.01,,,0.02,meteohub,2013-03-31 01:30:00,
2013-03-30 20:35:00,41.4,38.7,29.86,SSW,194,6.0,10.0,90,0.01,,,0.03,meteohub,2013-03-31 01:35:00,
2013-03-30 20:40:00,41.5,39.2,29.86,SSW,202,7.0,10.0,91,0.02,,,0.03,meteohub,2013-03-31 01:40:00,
2013-03-30 20:45:00,41.9,39.4,29.86,SSW,198,4.0,10.0,91,0.02,,,0.03,meteohub,2013-03-31 01:45:00,
2013-03-30 20:50:00,41.7,39.0,29.86,SSW,198,6.0,10.0,90,0.02,,,0.03,meteohub,2013-03-31 01:50:00,
2013-03-30 20:56:00,41.5,38.8,29.85,SSW,198,5.0,8.0,90,0.02,,,0.03,meteohub,2013-03-31 01:56:00,
2013-03-30 21:01:00,41.4,39.0,29.85,SSW,198,5.0,7.0,91,0.02,,,0.03,meteohub,2013-03-31 02:01:00,
2013-03-30 21:06:00,41.4,39.0,29.85,SSW,198,5.0,7.0,91,0.02,,,0.03,meteohub,2013-03-31 02:06:00,
2013-03-30 21:11:00,41.0,38.7,29.85,SSW,198,5.0,6.0,91,0.01,,,0.03,meteohub,2013-03-31 02:11:00,
2013-03-30 21:16:00,40.6,38.3,29.85,SSW,198,4.0,6.0,91,0.01,,,0.03,meteohub,2013-03-31 02:16:00,
2013-03-30 21:22:00,40.6,38.3,29.85,SSW,198,4.0,5.0,91,0.01,,,0.03,meteohub,2013-03-31 02:22:00,
2013-03-30 21:27:00,40.6,38.5,29.85,SSW,198,7.0,7.0,92,0.01,,,0.03,meteohub,2013-03-31 02:27:00,
2013-03-30 21:32:00,40.6,38.5,29.85,SSW,198,6.0,7.0,92,0.00,,,0.03,meteohub,2013-03-31 02:32:00,
2013-03-30 21:37:00,40.5,38.3,29.85,SSW,198,5.0,7.0,92,0.00,,,0.03,meteohub,2013-03-31 02:37:00,
2013-03-30 21:42:00,40.5,38.3,29.85,SSW,198,7.0,7.0,92,0.00,,,0.03,meteohub,2013-03-31 02:42:00,
2013-03-30 21:47:00,40.6,38.5,29.85,SSW,198,6.0,7.0,92,0.00,,,0.03,meteohub,2013-03-31 02:47:00,
2013-03-30 21:52:00,41.0,38.8,29.85,South,189,9.0,10.0,92,0.00,,,0.03,meteohub,2013-03-31 02:52:00,
2013-03-30 21:57:00,41.2,39.0,29.84,SSW,196,7.0,10.0,92,0.00,,,0.03,meteohub,2013-03-31 02:57:00,
2013-03-30 22:02:00,41.2,39.0,29.84,SSW,212,8.0,12.0,92,0.00,,,0.03,meteohub,2013-03-31 03:02:00,
2013-03-30 22:07:00,41.4,39.2,29.85,SSW,199,8.0,12.0,92,0.00,,,0.03,meteohub,2013-03-31 03:07:00,
2013-03-30 22:13:00,41.2,38.8,29.84,SSW,205,6.0,12.0,91,0.00,,,0.03,meteohub,2013-03-31 03:13:00,
2013-03-30 22:18:00,41.2,39.0,29.84,SSW,207,6.0,9.0,92,0.00,,,0.03,meteohub,2013-03-31 03:18:00,
2013-03-30 22:23:00,40.8,38.5,29.84,SSW,203,7.0,10.0,91,0.00,,,0.03,meteohub,2013-03-31 03:23:00,
2013-03-30 22:29:00,40.8,38.7,29.84,SSW,208,6.0,10.0,92,0.00,,,0.03,meteohub,2013-03-31 03:29:00,
2013-03-30 22:34:00,40.8,38.7,29.84,SSW,209,5.0,10.0,92,0.00,,,0.03,meteohub,2013-03-31 03:34:00,
2013-03-30 22:39:00,40.8,38.7,29.84,SSW,205,9.0,10.0,92,0.00,,,0.03,meteohub,2013-03-31 03:39:00,
2013-03-30 22:45:00,41.2,39.0,29.84,SW,222,6.0,10.0,92,0.00,,,0.03,meteohub,2013-03-31 03:45:00,
2013-03-30 22:50:00,41.2,39.0,29.84,SW,219,6.0,11.0,92,0.00,,,0.03,meteohub,2013-03-31 03:50:00,
2013-03-30 22:55:00,41.0,38.8,29.84,SSW,211,7.0,11.0,92,0.00,,,0.03,meteohub,2013-03-31 03:55:00,
2013-03-30 23:00:00,41.2,39.0,29.83,SW,218,6.0,11.0,92,0.00,,,0.03,meteohub,2013-03-31 04:00:00,
2013-03-30 23:01:00,41.2,39.0,29.83,SW,223,8.0,11.0,92,0.00,,,0.03,meteohub,2013-03-31 04:01:00,
2013-03-30 23:02:00,41.2,39.0,29.83,SW,221,7.0,11.0,92,0.00,,,0.03,meteohub,2013-03-31 04:02:00,
2013-03-30 23:07:00,41.0,38.8,29.83,SW,223,6.0,10.0,92,0.00,,,0.03,meteohub,2013-03-31 04:07:00,
2013-03-30 23:12:00,40.8,39.0,29.83,SW,221,6.0,10.0,93,0.00,,,0.03,meteohub,2013-03-31 04:12:00,
2013-03-30 23:18:00,41.0,39.2,29.83,SW,224,8.0,9.0,93,0.00,,,0.03,meteohub,2013-03-31 04:18:00,
2013-03-30 23:23:00,41.0,39.2,29.83,SW,224,9.0,10.0,93,0.00,,,0.03,meteohub,2013-03-31 04:23:00,
2013-03-30 23:28:00,41.0,40.5,29.83,SW,223,6.0,10.0,98,0.00,,,0.03,meteohub,2013-03-31 04:28:00,
2013-03-30 23:33:00,41.2,39.4,29.83,SW,225,10.0,10.0,93,0.00,,,0.03,meteohub,2013-03-31 04:33:00,
2013-03-30 23:38:00,41.2,39.4,29.83,SW,233,8.0,10.0,93,0.00,,,0.03,meteohub,2013-03-31 04:38:00,
2013-03-30 23:44:00,41.2,39.4,29.83,SW,229,4.0,10.0,93,0.00,,,0.03,meteohub,2013-03-31 04:44:00,
2013-03-30 23:49:00,41.2,39.4,29.83,SW,228,7.0,10.0,93,0.00,,,0.03,meteohub,2013-03-31 04:49:00,
2013-03-30 23:54:00,40.8,39.0,29.83,SW,227,4.0,9.0,93,0.00,,,0.03,meteohub,2013-03-31 04:54:00,